This is the latest recevied weather packets stored in our database for station/object AK4NG. If no packets are shown the sender has not sent any weather packets the latest 10 day(s).
| Time | Temp. | Humidity | Pressure | Rain* | Wind** | Luminosity | Snow |
|---|---|---|---|---|---|---|---|
| 1777832950 | 22.22° C | 36% | 1020.9 hPa | 0 mm | - | 904 W/m² | - |
| 1777832649 | 21.67° C | 37% | 1020.7 hPa | 0 mm | - | 907 W/m² | - |
| 1777832345 | 21.67° C | 38% | 1020.8 hPa | 0 mm | - | 916 W/m² | - |
| 1777832042 | 22.22° C | 35% | 1020.9 hPa | 0 mm | - | 920 W/m² | - |
| 1777831739 | 21.67° C | 35% | 1020.9 hPa | 0 mm | - | 923 W/m² | - |
| 1777831437 | 21.67° C | 36% | 1021 hPa | 0 mm | - | 928 W/m² | - |
| 1777831133 | 21.67° C | 32% | 1021.4 hPa | 0 mm | - | 929 W/m² | - |
| 1777830831 | 21.67° C | 35% | 1021.4 hPa | 0 mm | - | 930 W/m² | - |
| 1777830526 | 22.22° C | 34% | 1021.5 hPa | 0 mm | - | 930 W/m² | - |
| 1777830225 | 22.22° C | 37% | 1021.5 hPa | 0 mm | - | 929 W/m² | - |
| 1777829925 | 21.67° C | 34% | 1021.8 hPa | 0 mm | - | 932 W/m² | - |
| 1777829622 | 21.67° C | 33% | 1021.8 hPa | 0 mm | - | 929 W/m² | - |
| 1777829319 | 21.67° C | 36% | 1022 hPa | 0 mm | - | 926 W/m² | - |
| 1777829017 | 21.67° C | 37% | 1021.9 hPa | 0 mm | - | 927 W/m² | - |
| 1777828712 | 21.11° C | 36% | 1022.2 hPa | 0 mm | - | 926 W/m² | - |
| 1777828409 | 21.11° C | 37% | 1022.2 hPa | 0 mm | - | 922 W/m² | - |
| 1777828107 | 21.67° C | 34% | 1022.4 hPa | 0 mm | - | 918 W/m² | - |
| 1777827803 | 21.11° C | 33% | 1022.3 hPa | 0 mm | - | 914 W/m² | - |
| 1777827500 | 21.11° C | 35% | 1022.5 hPa | 0 mm | - | 910 W/m² | - |
| 1777827198 | 21.11° C | 36% | 1022.6 hPa | 0 mm | - | 905 W/m² | - |
| 1777826894 | 21.11° C | 38% | 1022.5 hPa | 0 mm | - | 901 W/m² | - |
| 1777826592 | 21.11° C | 35% | 1022.5 hPa | 0 mm | - | 896 W/m² | - |
| 1777826287 | 21.11° C | 34% | 1022.6 hPa | 0 mm | - | 889 W/m² | - |
| 1777825986 | 21.11° C | 36% | 1022.7 hPa | 0 mm | - | 882 W/m² | - |
| 1777825682 | 20.56° C | 39% | 1022.8 hPa | 0 mm | - | 873 W/m² | - |
* Rain latest hour (hover to see other rain measurements)
** Current wind speed in m/s (hover to see current wind gust speed)